Regional Weather Roundup
Issued by NWS State College, PA

Home | Current Version | Previous Version | Text Only | Print | Product List | Glossary Off
Versions: 1 2 3 4 5 6 7 8 9 10 11 12 13 14 15 16 17 18 19 20 21 22 23 24 25 26 27 28 29 30 31 32 33 34 35 36 37 38 39 40 41 42 43 44 45 46 47 48 49 50

973
ASUS41 KCTP 251603
RWRCTP

REGIONAL WEATHER ROUNDUP
NATIONAL WEATHER SERVICE STATE COLLEGE PA
1100 AM EST SAT FEB 25 2017

Note: "fair" indicates few or no clouds below 12,000 feet with no
significant weather and/or obstructions to visibility.

* = STATION THAT DOES NOT REPORT PRECIPITATION /E.G. RAIN...SNOW...ETC/
    THUNDER OR FOG.

PAZ002>004-007>009-013>016-020>023-029>032-251700-
WESTERN PENNSYLVANIA

CITY           SKY/WX    TMP DP  RH WIND       PRES   REMARKS
ERIE           CLOUDY    43  34  70 W14G28    29.56S
MEADVILLE      CLOUDY    42  34  73 W17       29.56S
FRANKLIN*      CLOUDY    43  36  75 W10       29.58R
NEW CASTLE     CLOUDY    45  35  68 W17G23    29.60S
BEAVER COUNTY  CLOUDY    45  39  81 W10G16    29.59F
BUTLER*        CLOUDY    45  37  76 W10       29.59S
PITTSBURGH INT CLOUDY    48  40  73 W15G24    29.59S
PITTSBURGH     CLOUDY    46  36  68 W15G23    29.59R
INDIANA*       CLOUDY    48  48 100 NW15G21   29.59R FOG
LATROBE        LGT RAIN  46  45  93 W17G25    29.61R FOG
WASHINGTON CO* CLOUDY    46  37  71 W14G21    29.63S
$$

PAZ004>006-010>012-017>019-024>028-033>037-041-042-045-046-049>053-251700-
CENTRAL PENNSYLVANIA

CITY           SKY/WX    TMP DP  RH WIND       PRES   REMARKS
BRADFORD       LGT RAIN  45  43  93 NW21G29   29.51R FOG
DUBOIS         CLOUDY    48  44  86 W21G31    29.52R FOG
CLEARFIELD       N/A    N/A N/A N/A MISG      29.50F
JOHNSTOWN      LGT RAIN  53  52  96 S9        29.52F
ALTOONA        LGT RAIN  57  51  80 S14G22    29.54F
STATE COLLEGE  RAIN      57  52  82 SW9G17    29.54F
WILLIAMSPORT   CLOUDY    63  56  78 E7        29.53F
SELINSGROVE    CLOUDY    64  56  75 S9G18     29.55F
FT INDIANTOWN  CLOUDY    63  63  99 S7        29.59F
CAPITAL CITY   PTSUNNY   70  56  61 S12G18    29.57F
HARRISBURG     CLOUDY    66  57  72 S10       29.57F
YORK           PTSUNNY   67  58  72 S9        29.58F
$$

PAZ038>040-043-044-047-048-054-055-060>062-067>071-251700-
EASTERN PENNSYLVANIA

CITY           SKY/WX    TMP DP  RH WIND       PRES   REMARKS
SCRANTON       CLOUDY    64  56  75 S10G28    29.56F
MOUNT POCONO   CLOUDY    56  56 100 S14G20    29.63F
ALLENTOWN      MOSUNNY   69  56  62 S16G25    29.62F
QUAKERTOWN*    MOSUNNY   66  57  72 S10       29.65F
READING        PTSUNNY   71  59  65 S17G23    29.58F
LANCASTER      PTSUNNY   68  59  73 S16G24    29.60F
COATESVILLE      N/A     66  57  72 SE9G15    29.64F
POTTSTOWN      MOSUNNY   66  56  70 S9        29.65F
BLUE BELL      PTSUNNY   68  55  64 S9G16     29.65F
DOYLESTOWN     PTSUNNY   67  57  70 S13       29.65F
WILLOW GROVE   NOT AVBL
NORTH PHILA    PTSUNNY   71  56  58 S8G20     29.68F
PHILADELPHIA   PTSUNNY   69  56  62 S15G25    29.67F
$$




USA.gov is the U.S. government's official web portal to all federal, state and local government web resources and services.